TimeEDT,TemperatureF,Dew PointF,Humidity,Sea Level PressureIn,VisibilityMPH,Wind Direction,Wind SpeedMPH,Gust SpeedMPH,PrecipitationIn,Events,Conditions,WindDirDegrees,DateUTC
12:00 AM,44.6,41.0,87,30.19,9.0,SSE,2.3,-,N/A,,Clear,160,2013-09-27 04:00:00
12:24 AM,44.6,42.8,93,30.19,5.0,South,3.5,-,N/A,,Clear,180,2013-09-27 04:24:00
12:35 AM,44.6,44.6,100,30.19,6.0,South,3.5,-,N/A,,Clear,180,2013-09-27 04:35:00
1:00 AM,44.6,42.8,93,30.19,9.0,South,2.3,-,N/A,,Clear,180,2013-09-27 05:00:00
2:00 AM,51,48,84,30.20,,SSE,6.9,,,,,150,2013-09-27 06:00:00
2:00 AM,44.6,42.8,93,30.20,9.0,South,2.3,-,N/A,,Clear,180,2013-09-27 06:00:00
3:00 AM,44.6,42.8,93,30.20,9.0,South,3.5,-,N/A,,Clear,170,2013-09-27 07:00:00
3:47 AM,42.8,42.8,100,30.21,4.0,South,3.5,-,N/A,,Clear,170,2013-09-27 07:47:00
3:51 AM,42.8,42.8,100,30.21,2.2,South,3.5,-,N/A,,Clear,170,2013-09-27 07:51:00
4:00 AM,42.8,41.0,93,30.21,1.0,SSE,3.5,-,N/A,,Clear,160,2013-09-27 08:00:00
4:05 AM,41.0,41.0,100,30.21,5.0,SSE,3.5,-,N/A,,Clear,160,2013-09-27 08:05:00
4:06 AM,41.0,41.0,100,30.21,8.0,SSE,3.5,-,N/A,,Clear,160,2013-09-27 08:06:00
4:07 AM,41.0,41.0,100,30.21,5.0,SSE,3.5,-,N/A,,Clear,160,2013-09-27 08:07:00
4:10 AM,42.8,41.0,93,30.21,2.2,South,3.5,-,N/A,,Clear,170,2013-09-27 08:10:00
4:20 AM,42.8,41.0,93,30.21,4.0,South,5.8,-,N/A,,Clear,180,2013-09-27 08:20:00
4:22 AM,42.8,42.8,100,30.21,6.0,South,5.8,-,N/A,,Clear,180,2013-09-27 08:22:00
5:00 AM,47,45,91,30.21,,SSE,4.6,,,,,150,2013-09-27 09:00:00
5:00 AM,44.6,44.6,100,30.21,9.0,SSE,4.6,-,N/A,,Clear,160,2013-09-27 09:00:00
5:32 AM,42.8,42.8,100,30.22,2.5,South,3.5,-,N/A,,Clear,170,2013-09-27 09:32:00
5:45 AM,39.2,39.2,100,30.22,3.0,SSE,3.5,-,N/A,,Clear,160,2013-09-27 09:45:00
5:51 AM,39.2,39.2,100,30.22,2.2,South,3.5,-,N/A,,Clear,170,2013-09-27 09:51:00
5:53 AM,39.2,39.2,100,30.22,2.2,South,2.3,-,N/A,,Partly Cloudy,170,2013-09-27 09:53:00
6:00 AM,39.2,39.2,100,30.22,2.0,South,2.3,-,N/A,,Partly Cloudy,170,2013-09-27 10:00:00
6:04 AM,39.2,39.2,100,30.22,5.0,SSE,3.5,-,N/A,,Clear,160,2013-09-27 10:04:00
6:05 AM,39.2,39.2,100,30.22,9.0,SSE,3.5,-,N/A,,Clear,160,2013-09-27 10:05:00
6:40 AM,37.4,35.6,93,30.23,4.0,SSE,4.6,-,N/A,,Clear,160,2013-09-27 10:40:00
6:47 AM,37.4,37.4,100,30.24,1.2,South,3.5,-,N/A,,Clear,170,2013-09-27 10:47:00
6:48 AM,39.2,39.2,100,30.24,0.8,South,3.5,-,N/A,,Partly Cloudy,170,2013-09-27 10:48:00
7:00 AM,37.4,37.4,100,30.25,0.4,South,3.5,-,N/A,Fog,Fog,170,2013-09-27 11:00:00
7:17 AM,37.4,37.4,100,30.25,5.0,South,3.5,-,N/A,,Partly Cloudy,170,2013-09-27 11:17:00
7:20 AM,37.4,37.4,100,30.25,9.0,South,3.5,-,N/A,,Clear,170,2013-09-27 11:20:00
7:25 AM,37.4,37.4,100,30.25,4.0,SSE,3.5,-,N/A,,Clear,160,2013-09-27 11:25:00
7:26 AM,37.4,37.4,100,30.25,2.2,SSE,3.5,-,N/A,,Clear,160,2013-09-27 11:26:00
7:43 AM,37.4,37.4,100,30.25,7.0,South,3.5,-,N/A,,Clear,180,2013-09-27 11:43:00
8:00 AM,47,45,92,30.25,,SSE,4.6,,,,,150,2013-09-27 12:00:00
8:00 AM,41.0,41.0,100,30.25,9.0,South,5.8,-,N/A,,Clear,170,2013-09-27 12:00:00
9:00 AM,50.0,48.2,94,30.25,9.0,SSE,4.6,-,N/A,,Clear,160,2013-09-27 13:00:00
10:00 AM,60.8,51.8,72,30.25,9.0,SSE,5.8,-,N/A,,Clear,160,2013-09-27 14:00:00
11:00 AM,68,50,42,30.23,,South,5.8,,,,,190,2013-09-27 15:00:00
11:00 AM,68.0,50.0,52,30.23,9.0,SSW,8.1,-,N/A,,Clear,200,2013-09-27 15:00:00
12:00 PM,71.6,48.2,43,30.22,9.0,SSW,12.7,-,N/A,,Clear,210,2013-09-27 16:00:00
1:00 PM,75.2,46.4,36,30.20,9.0,South,12.7,-,N/A,,Clear,190,2013-09-27 17:00:00
2:00 PM,76,45,22,30.19,,South,9.2,,,,,190,2013-09-27 18:00:00
2:00 PM,75.2,46.4,36,30.19,9.0,SSW,11.5,18.4,N/A,,Clear,210,2013-09-27 18:00:00
3:00 PM,75.2,46.4,36,30.17,9.0,SSW,13.8,-,N/A,,Clear,200,2013-09-27 19:00:00
4:00 PM,77.0,48.2,36,30.16,9.0,SSW,9.2,-,N/A,,Clear,210,2013-09-27 20:00:00
5:00 PM,76,47,24,30.16,,South,9.2,,,,,190,2013-09-27 21:00:00
5:00 PM,77.0,48.2,36,30.16,9.0,South,11.5,-,N/A,,Clear,190,2013-09-27 21:00:00
6:00 PM,75.2,50.0,41,30.16,9.0,South,6.9,-,N/A,,Clear,190,2013-09-27 22:00:00
7:00 PM,69.8,50.0,49,30.17,9.0,SSW,5.8,-,N/A,,Clear,200,2013-09-27 23:00:00
8:00 PM,65,50,48,30.17,,South,4.6,,,,,180,2013-09-28 00:00:00
8:00 PM,64.4,51.8,64,30.17,9.0,SSW,5.8,-,N/A,,Clear,200,2013-09-28 00:00:00
9:00 PM,60.8,51.8,72,30.17,9.0,South,5.8,-,N/A,,Clear,190,2013-09-28 01:00:00
10:00 PM,59.0,50.0,72,30.17,9.0,South,6.9,-,N/A,,Clear,190,2013-09-28 02:00:00
11:00 PM,57,50,69,30.17,,South,5.8,,,,,180,2013-09-28 03:00:00
11:00 PM,55.4,50.0,82,30.17,9.0,South,5.8,-,N/A,,Clear,180,2013-09-28 03:00:00